RCAMPBELL Weather Reports


Display with metric or nautical units.
time (UTC)temp
F
wind
direction
speed
MPH
gust
MPH
rain 1hr
in
rain 24hr
in
rain mn
in
humidity
%
barometer
mb
20260504214538 71 194 6.0 10.0 0.00 0.00 0.00 62 1008.6
20260504213045 71 187 5.0 8.0 0.00 0.00 0.00 61 1008.7
20260504211542 70 163 5.0 10.0 0.00 0.00 0.00 60 1008.8
20260504210039 70 169 6.0 9.0 0.00 0.00 0.00 64 1008.9
20260504204542 69 172 6.0 11.0 0.00 0.00 0.00 65 1009.0
20260504203037 69 161 6.0 11.0 0.00 0.00 0.00 62 1009.0
20260504201538 69 171 6.0 10.0 0.00 0.00 0.00 67 1009.1
20260504200037 69 153 4.0 8.0 0.00 0.00 0.00 67 1009.1
20260504194538 68 182 4.0 9.0 0.00 0.00 0.00 70 1009.2
20260504193053 67 167 4.0 9.0 0.00 0.00 0.00 71 1009.2
20260504191537 68 175 4.0 8.0 0.00 0.00 0.00 71 1009.1
20260504190041 67 173 4.0 9.0 0.00 0.00 0.00 74 1009.2
20260504184537 67 140 5.0 9.0 0.00 0.00 0.00 74 1009.3
20260504183049 67 167 5.0 10.0 0.00 0.00 0.00 72 1009.2
20260504181538 67 145 4.0 9.0 0.00 0.00 0.00 71 1009.2
20260504180058 66 182 4.0 10.0 0.00 0.00 0.00 75 1009.2
20260504174538 64 193 5.0 8.0 0.00 0.00 0.00 79 1009.1
20260504173039 63 175 2.0 5.0 0.00 0.00 0.00 78 1009.3
20260504171538 62 150 2.0 4.0 0.00 0.00 0.00 76 1009.1
20260504081542 57 0 0.0 1.0 0.00 0.00 0.00 82 1008.1
20260504044537 60 42 0.0 1.0 0.00 0.00 0.00 72 1008.2
20260504043043 60 74 0.0 1.0 0.00 0.00 0.00 74 1008.2
20260504041535 61 78 0.0 1.0 0.00 0.00 0.00 72 1008.3
20260504040040 61 355 0.0 1.0 0.00 0.00 0.00 72 1008.2
20260504034542 61 0 0.0 0.0 0.00 0.00 0.00 65 1008.3
20260504033041 62 312 0.0 1.0 0.00 0.00 0.00 64 1008.1
20260504031536 64 0 0.0 1.0 0.00 0.00 0.00 61 1008.1
20260504030042 65 267 1.0 2.0 0.00 0.00 0.00 58 1008.1
20260504024539 65 259 1.0 3.0 0.00 0.00 0.00 58 1008.3
20260504023037 66 249 1.0 6.0 0.00 0.00 0.00 58 1008.2
20260504021537 67 262 1.0 4.0 0.00 0.00 0.00 61 1008.5
20260504020043 67 147 1.0 3.0 0.00 0.00 0.00 67 1008.6
20260504014547 67 132 2.0 3.0 0.00 0.00 0.00 66 1008.7
20260504013037 69 80 2.0 5.0 0.00 0.00 0.00 61 1008.7
20260504011537 74 215 2.0 6.0 0.00 0.00 0.00 52 1008.9
20260504010038 74 327 1.0 3.0 0.00 0.00 0.00 47 1009.0
20260504004537 73 229 2.0 7.0 0.00 0.00 0.00 50 1009.2
20260504003037 73 250 4.0 7.0 0.00 0.00 0.00 50 1009.4
20260504001539 72 226 5.0 9.0 0.00 0.00 0.00 57 1009.4
20260504000042 75 22 3.0 7.0 0.00 0.00 0.00 43 1009.5
20260503234536 74 259 4.0 10.0 0.00 0.00 0.00 46 1009.7
20260503233037 75 309 2.0 7.0 0.00 0.00 0.00 51 1009.7
20260503231537 74 257 2.0 10.0 0.00 0.00 0.00 53 1009.9
20260503230037 73 11 3.0 6.0 0.00 0.00 0.00 54 1010.2
20260503224539 73 303 3.0 10.0 0.00 0.00 0.00 53 1010.5
20260503223036 72 279 6.0 12.0 0.00 0.00 0.00 53 1010.8
20260503221539 71 286 7.0 11.0 0.00 0.00 0.00 53 1010.9
20260503220039 71 311 9.0 13.0 0.00 0.00 0.00 54 1011.0